TimePDT,TemperatureF,Dew PointF,Humidity,Sea Level PressureIn,VisibilityMPH,Wind Direction,Wind SpeedMPH,Gust SpeedMPH,PrecipitationIn,Events,Conditions,WindDirDegrees,DateUTC
12:53 AM,50.0,42.1,74,30.04,10.0,WSW,5.8,-,N/A,,Clear,240,2013-05-25 07:53:00
1:53 AM,50.0,43.0,77,30.04,10.0,Variable,3.5,-,N/A,,Clear,0,2013-05-25 08:53:00
2:53 AM,48.0,42.1,80,30.04,10.0,West,5.8,-,N/A,,Clear,260,2013-05-25 09:53:00
3:53 AM,46.0,41.0,83,30.04,10.0,SSE,3.5,-,N/A,,Scattered Clouds,150,2013-05-25 10:53:00
4:53 AM,45.0,39.9,82,30.04,10.0,SE,4.6,-,N/A,,Partly Cloudy,130,2013-05-25 11:53:00
5:53 AM,46.0,41.0,83,30.05,10.0,SE,3.5,-,N/A,,Overcast,140,2013-05-25 12:53:00
6:53 AM,50.0,42.1,74,30.06,10.0,Calm,Calm,-,N/A,,Scattered Clouds,0,2013-05-25 13:53:00
7:53 AM,53.1,44.1,71,30.05,10.0,Variable,3.5,-,N/A,,Partly Cloudy,0,2013-05-25 14:53:00
8:53 AM,57.0,44.1,62,30.04,10.0,Calm,Calm,-,N/A,,Scattered Clouds,0,2013-05-25 15:53:00
9:53 AM,60.1,43.0,53,30.03,10.0,NNW,10.4,-,N/A,,Overcast,330,2013-05-25 16:53:00
10:53 AM,61.0,42.1,50,30.02,10.0,NW,9.2,-,N/A,,Overcast,320,2013-05-25 17:53:00
11:53 AM,63.0,39.9,43,30.01,10.0,NW,13.8,17.3,N/A,,Overcast,320,2013-05-25 18:53:00
12:53 PM,64.9,39.9,40,30.01,10.0,WNW,11.5,16.1,N/A,,Mostly Cloudy,290,2013-05-25 19:53:00
1:53 PM,69.1,41.0,36,29.99,10.0,NW,16.1,19.6,N/A,,Partly Cloudy,320,2013-05-25 20:53:00
2:53 PM,68.0,41.0,37,29.97,10.0,NNW,13.8,-,N/A,,Partly Cloudy,330,2013-05-25 21:53:00
3:53 PM,69.1,41.0,36,29.96,10.0,NNW,8.1,-,N/A,,Clear,340,2013-05-25 22:53:00
4:53 PM,68.0,41.0,37,29.95,10.0,WNW,10.4,-,N/A,,Clear,300,2013-05-25 23:53:00
5:53 PM,68.0,42.1,39,29.94,10.0,NNW,3.5,-,N/A,,Clear,340,2013-05-26 00:53:00
6:53 PM,68.0,42.1,39,29.93,10.0,West,8.1,-,N/A,,Clear,280,2013-05-26 01:53:00
7:53 PM,66.9,42.1,40,29.92,10.0,WNW,8.1,-,N/A,,Clear,300,2013-05-26 02:53:00
8:53 PM,63.0,44.1,50,29.92,10.0,West,5.8,-,N/A,,Clear,280,2013-05-26 03:53:00
9:53 PM,61.0,45.0,56,29.93,10.0,SW,4.6,-,N/A,,Clear,220,2013-05-26 04:53:00
10:53 PM,59.0,46.0,62,29.94,10.0,Calm,Calm,-,N/A,,Scattered Clouds,0,2013-05-26 05:53:00
11:53 PM,57.9,46.0,65,29.94,10.0,Calm,Calm,-,N/A,,Overcast,0,2013-05-26 06:53:00